Location: Mound City (historical)
(34.0564°N, 117.2656°W)
Time: 02:11:10
(UTC+00:00)

Cosmos 1934 Rocket - Pass Details

Date: 08 September 2024
Orbit: 938 x 997 km, 83.0° (Epoch: 10 October)

Event Time Altitude Azimuth Distance (km) Brightness Sun altitude
Rises 11:58:18 0° 355° (N) 3,684 7.2 -18.8°
Reaches altitude 10° 12:00:49 10° 356° (N) 2,741 6.5 -18.3°
Maximum altitude 12:07:07 80° 84° (E) 1,008 4.1 -17.1°
Drops below altitude 10° 12:13:27 10° 171° (S) 2,752 6.3 -15.9°
Sets 12:15:59 0° 173° (S) 3,700 6.9 -15.4°
